SL-14 DEB, 45315

Orbit data source: Space-Track

SL-14 DEB, 45315 is space debris in LEO originally from a launch on Thu, 15 Aug 1991 UTC launched from the Plesetsk Missile And Space Complex (PKMTR). Debris objects in space refer to the collection of defunct objects orbiting the Earth. Examples of debris include non-operational satellites, rocket bodies, and fragments generated from explosions, collisions, or faulty payload assembly.

Loading next visibility...
Identifier
45315, 1991-056BD
Orbit
LEO
Country
Flag of CISCIS
Related business
Manufacturer
Unknown
Mission
Spacecraft
Bus & Motor
Unknown
Mass
Unknown
Launch date (UTC)
1991-08-15 (35 years ago)
Launch vehicle
Unknown
Launch site
Plesetsk Missile And Space Complex (PKMTR)
Object type
Payload
Rocket body
Debris
Shape & HBR
Unknown shape, 0.1 m
Radar Cross Section
Small (<0.1 m²)

Expand to show TLE details & history
Last TLE update: 2 days ago

TLE from 2 days ago
0 SL-14 DEB
1 45315U 91056BD  26125.38826028  .00000181  00000-0  44813-3 0  9995
2 45315  82.5621 177.2074 0022962 301.8891  57.9996 13.15540820296981
Epoch: 2026-05-05T09:19Z
TLE epoch observation values (Epoch: 2026-05-05T09:19:05.688Z)
Latitude
-0.00004°
Longitude
174.16987°
Altitude
1,195.41 km
Speed
7.261 km/s
True Right ascension
11h 48m 49s
True Declination
0° 00' 00"
Sunlit
Object was in full shadow at epoch
Visualization orbit readout
Latitude
Unknown
Longitude
Unknown
Altitude
Unknown
Speed
Unknown
Apparent Right ascension
Unknown
Apparent Declination
Unknown
Sunlit
N/A
Visualization observer readout
Local Sidereal Time
07:41:12
Azimuth
Unknown
Elevation
Unknown
Doppler factor
Unknown
Orbital elements
Apogee altitude
1,216.445 km
Perigee altitude
1,181.648 km
Semi-major axis
7,577.184 km
Eccentricity
0.0023
Inclination
82.5621°
RAAN
177.2074°
Arg. of periapsis
301.8891°
True anomaly
58.22308°
Mean anomaly
57.9996°
Eccentric anomaly
58.11131°
Mean motion
3.29065 °/min
Orbital period
109.4 mins
BSTAR
0.00044813
Loading maneuver chart data...
Computing Atmospheric mass density...
Loading historical data...
Loading historical data...
Loading historical data...
Loading historical data...
Loading historical data...
Loading historical data...
Loading historical data...

Documentation

Showing up to 5 results
|